When you browse on this site, cookies collect data to enhance your experience and personalize the content and advertising you see.
Visit our Privacy Policy to learn more. By continuing to use the site, you agree to this use of cookies and data.
EN

Hourly Weather Cumaná

Today, 15 July, Wednesday

Time Temperature Precipitation Wind Pressure Humidity
00:00 +26°C° 0 mm 3 mps 753 mmHg 95%
01:00 +26°C° 0 mm 3 mps 752 mmHg 94%
02:00 +26°C° 0 mm 3 mps 752 mmHg 93%
03:00 +25°C° 0 mm 3 mps 752 mmHg 93%
04:00 +25°C° 0 mm 2 mps 752 mmHg 92%
05:00 +25°C° 0 mm 2 mps 752 mmHg 92%
06:00 +26°C° 0 mm 1 mps 752 mmHg 88%
07:00 +28°C° 0 mm 1 mps 752 mmHg 83%
08:00 +29°C° 0 mm 1 mps 752 mmHg 79%
09:00 +31°C° 0 mm 1 mps 752 mmHg 73%
10:00 +32°C° 0 mm 1 mps 752 mmHg 68%
11:00 +34°C° 0 mm 2 mps 752 mmHg 62%
12:00 +34°C° 0.3 mm 2 mps 752 mmHg 68%
13:00 +32°C° 0.3 mm 2 mps 751 mmHg 74%
14:00 +32°C° 0.3 mm 2 mps 750 mmHg 80%
15:00 +31°C° 0.5 mm 2 mps 750 mmHg 84%
16:00 +30°C° 0.5 mm 2 mps 750 mmHg 87%
17:00 +29°C° 0.5 mm 2 mps 749 mmHg 90%
18:00 +28°C° 0.4 mm 3 mps 750 mmHg 93%
19:00 +27°C° 0.4 mm 3 mps 750 mmHg 95%
20:00 +26°C° 0.4 mm 3 mps 751 mmHg 97%
21:00 +26°C° 0.1 mm 3 mps 751 mmHg 96%
22:00 +26°C° 0.1 mm 3 mps 751 mmHg 95%
23:00 +26°C° 0.1 mm 3 mps 752 mmHg 94%

Tomorrow, 16 July, Thursday

Time Temperature Precipitation Wind Pressure Humidity
00:00 +25°C° 0.1 mm 3 mps 752 mmHg 94%
01:00 +25°C° 0.1 mm 3 mps 751 mmHg 93%
02:00 +25°C° 0.1 mm 2 mps 751 mmHg 93%
03:00 +25°C° 0.1 mm 2 mps 751 mmHg 92%
04:00 +25°C° 0.1 mm 2 mps 751 mmHg 92%
05:00 +25°C° 0.1 mm 2 mps 751 mmHg 91%
06:00 +26°C° 0 mm 2 mps 751 mmHg 88%
07:00 +28°C° 0 mm 1 mps 752 mmHg 84%
08:00 +29°C° 0 mm 1 mps 752 mmHg 80%
09:00 +31°C° 0 mm 1 mps 752 mmHg 71%
10:00 +34°C° 0 mm 2 mps 752 mmHg 63%
11:00 +35°C° 0 mm 2 mps 752 mmHg 54%
12:00 +34°C° 0.4 mm 2 mps 752 mmHg 64%
13:00 +32°C° 0.4 mm 2 mps 751 mmHg 73%
14:00 +33°C° 0.4 mm 3 mps 751 mmHg 82%
15:00 +31°C° 1.1 mm 3 mps 750 mmHg 85%
16:00 +30°C° 1.1 mm 3 mps 750 mmHg 87%
17:00 +30°C° 1.1 mm 4 mps 749 mmHg 90%
18:00 +29°C° 0.5 mm 4 mps 750 mmHg 92%
19:00 +28°C° 0.5 mm 4 mps 751 mmHg 93%
20:00 +27°C° 0.5 mm 5 mps 751 mmHg 94%
21:00 +26°C° 0.1 mm 5 mps 751 mmHg 93%
22:00 +26°C° 0.1 mm 4 mps 752 mmHg 92%
23:00 +26°C° 0.1 mm 4 mps 752 mmHg 91%

Day after tomorrow, 17 July, Friday

Time Temperature Precipitation Wind Pressure Humidity
00:00 +25°C° 0 mm 4 mps 752 mmHg 89%
01:00 +25°C° 0 mm 3 mps 751 mmHg 88%
02:00 +25°C° 0 mm 3 mps 751 mmHg 87%
03:00 +25°C° 0 mm 3 mps 751 mmHg 86%
04:00 +25°C° 0 mm 3 mps 751 mmHg 85%
05:00 +25°C° 0 mm 3 mps 751 mmHg 84%
06:00 +26°C° 0 mm 2 mps 751 mmHg 79%
07:00 +28°C° 0 mm 2 mps 752 mmHg 75%
08:00 +30°C° 0 mm 1 mps 752 mmHg 71%
09:00 +31°C° 0 mm 2 mps 752 mmHg 66%
10:00 +34°C° 0 mm 2 mps 752 mmHg 61%
11:00 +35°C° 0 mm 2 mps 752 mmHg 56%
12:00 +35°C° 0.2 mm 2 mps 752 mmHg 62%
13:00 +34°C° 0.2 mm 2 mps 751 mmHg 68%
14:00 +34°C° 0.2 mm 2 mps 750 mmHg 74%
15:00 +32°C° 0.5 mm 2 mps 750 mmHg 79%
16:00 +31°C° 0.5 mm 2 mps 750 mmHg 84%
17:00 +30°C° 0.5 mm 2 mps 749 mmHg 88%
18:00 +29°C° 0.4 mm 3 mps 750 mmHg 90%
19:00 +28°C° 0.4 mm 3 mps 750 mmHg 93%
20:00 +27°C° 0.4 mm 4 mps 751 mmHg 95%
21:00 +27°C° 0 mm 4 mps 751 mmHg 94%
22:00 +26°C° 0 mm 4 mps 751 mmHg 93%
23:00 +26°C° 0 mm 4 mps 752 mmHg 92%

18 July, Saturday

Time Temperature Precipitation Wind Pressure Humidity
00:00 +26°C° 0 mm 4 mps 751 mmHg 91%
01:00 +25°C° 0 mm 3 mps 751 mmHg 90%
02:00 +25°C° 0 mm 3 mps 751 mmHg 90%
03:00 +25°C° 0 mm 3 mps 751 mmHg 88%
04:00 +25°C° 0 mm 2 mps 751 mmHg 87%
05:00 +25°C° 0 mm 2 mps 751 mmHg 86%
06:00 +26°C° 0 mm 2 mps 751 mmHg 82%
07:00 +28°C° 0 mm 1 mps 751 mmHg 77%
08:00 +29°C° 0 mm 1 mps 752 mmHg 73%
09:00 +31°C° 0 mm 2 mps 752 mmHg 68%
10:00 +32°C° 0 mm 2 mps 752 mmHg 63%
11:00 +35°C° 0 mm 2 mps 752 mmHg 57%
12:00 +34°C° 0.4 mm 2 mps 751 mmHg 66%
13:00 +32°C° 0.4 mm 2 mps 750 mmHg 74%
14:00 +32°C° 0.4 mm 2 mps 750 mmHg 83%
15:00 +31°C° 0.8 mm 2 mps 749 mmHg 86%
16:00 +30°C° 0.8 mm 2 mps 749 mmHg 89%
17:00 +29°C° 0.8 mm 2 mps 749 mmHg 92%
18:00 +29°C° 0.4 mm 3 mps 749 mmHg 94%
19:00 +28°C° 0.4 mm 3 mps 750 mmHg 95%
20:00 +27°C° 0.4 mm 3 mps 750 mmHg 97%
21:00 +26°C° 0.2 mm 3 mps 751 mmHg 96%
22:00 +26°C° 0.2 mm 3 mps 751 mmHg 95%
23:00 +26°C° 0.2 mm 3 mps 752 mmHg 94%

19 July, Sunday

Time Temperature Precipitation Wind Pressure Humidity
00:00 +26°C° 0.2 mm 3 mps 751 mmHg 94%
01:00 +26°C° 0.2 mm 3 mps 751 mmHg 93%
02:00 +25°C° 0.2 mm 4 mps 750 mmHg 93%
03:00 +25°C° 0 mm 3 mps 750 mmHg 92%
04:00 +25°C° 0 mm 3 mps 750 mmHg 91%
05:00 +25°C° 0 mm 2 mps 750 mmHg 90%
06:00 +27°C° 0 mm 2 mps 751 mmHg 87%
07:00 +28°C° 0 mm 2 mps 751 mmHg 83%
08:00 +29°C° 0 mm 1 mps 751 mmHg 80%
09:00 +31°C° 0 mm 2 mps 751 mmHg 75%
10:00 +32°C° 0 mm 2 mps 751 mmHg 70%
11:00 +34°C° 0 mm 2 mps 751 mmHg 64%
12:00 +34°C° 0.3 mm 2 mps 751 mmHg 71%
13:00 +32°C° 0.3 mm 2 mps 750 mmHg 77%
14:00 +32°C° 0.3 mm 2 mps 749 mmHg 83%
15:00 +31°C° 0.7 mm 2 mps 749 mmHg 86%
16:00 +30°C° 0.7 mm 3 mps 749 mmHg 89%
17:00 +30°C° 0.7 mm 3 mps 748 mmHg 92%
18:00 +29°C° 0.6 mm 3 mps 749 mmHg 93%
19:00 +27°C° 0.6 mm 4 mps 749 mmHg 94%
20:00 +26°C° 0.6 mm 4 mps 750 mmHg 96%
21:00 +26°C° 0.4 mm 4 mps 750 mmHg 95%
22:00 +26°C° 0.4 mm 4 mps 751 mmHg 95%
23:00 +26°C° 0.4 mm 4 mps 751 mmHg 94%

20 July, Monday

Time Temperature Precipitation Wind Pressure Humidity
00:00 +25°C° 0 mm 4 mps 751 mmHg 93%
01:00 +25°C° 0 mm 3 mps 750 mmHg 92%
02:00 +25°C° 0 mm 3 mps 750 mmHg 92%
03:00 +25°C° 0 mm 3 mps 750 mmHg 90%
04:00 +25°C° 0 mm 3 mps 750 mmHg 89%
05:00 +24°C° 0 mm 2 mps 750 mmHg 88%
06:00 +26°C° 0 mm 2 mps 750 mmHg 84%
07:00 +27°C° 0 mm 2 mps 751 mmHg 80%
08:00 +29°C° 0 mm 1 mps 751 mmHg 76%
09:00 +30°C° 0 mm 2 mps 751 mmHg 70%
10:00 +32°C° 0 mm 2 mps 751 mmHg 64%
11:00 +34°C° 0 mm 2 mps 751 mmHg 58%
12:00 +34°C° 0.2 mm 2 mps 751 mmHg 65%
13:00 +32°C° 0.2 mm 2 mps 750 mmHg 73%
14:00 +31°C° 0.2 mm 2 mps 750 mmHg 80%
15:00 +31°C° 0.5 mm 3 mps 749 mmHg 85%
16:00 +30°C° 0.5 mm 3 mps 749 mmHg 89%
17:00 +29°C° 0.5 mm 3 mps 749 mmHg 93%
18:00 +28°C° 0.4 mm 4 mps 749 mmHg 94%
19:00 +27°C° 0.4 mm 4 mps 750 mmHg 95%
20:00 +26°C° 0.4 mm 5 mps 750 mmHg 96%
21:00 +26°C° 0.2 mm 5 mps 751 mmHg 96%
22:00 +26°C° 0.2 mm 5 mps 751 mmHg 95%
23:00 +26°C° 0.2 mm 5 mps 752 mmHg 94%
Show more